Overview Statistics Trail Chart Weather Telemetry Raw packets
 

This is the latest recevied weather packets stored in our database for station/object KC5L-7. If no packets are shown the sender has not sent any weather packets the latest 10 day(s).

<< 47 48 49 50 51 52 >>
Time Temp. Humidity Pressure Rain* Wind** Luminosity Snow
1787751683 26.67° C 74% 1015.5 hPa 0 mm - - -
1787751080 26.67° C 74% 1015.4 hPa 0 mm - - -
1787750480 26.67° C 75% 1015.3 hPa 0 mm - - -
1787749880 26.11° C 75% 1015.5 hPa 0 mm - - -
1787749280 26.11° C 75% 1015.4 hPa 0 mm - - -
1787748680 26.11° C 75% 1015.2 hPa 0 mm - - -
1787748080 25.56° C 75% 1015.2 hPa 0 mm - - -
1787747480 25.56° C 75% 1015 hPa 0 mm - - -
1787746880 25.56° C 75% 1014.8 hPa 0 mm - - -
1787746280 26.11° C 75% 1014.6 hPa 0 mm - - -
1787745681 26.11° C 75% 1014.5 hPa 0 mm - - -
1787745080 26.11° C 74% 1014.3 hPa 0 mm - - -
1787744480 26.11° C 74% 1013.9 hPa 0 mm - - -
1787743880 26.11° C 74% 1013.9 hPa 0 mm - - -
1787743281 26.11° C 74% 1014.2 hPa 0 mm - - -
1787742681 26.11° C 74% 1014.3 hPa 0 mm - - -
1787742080 26.67° C 73% 1014.2 hPa 0 mm - - -
1787741481 26.67° C 73% 1014.2 hPa 0 mm - - -
1787740881 26.67° C 72% 1013.9 hPa 0 mm - - -
1787740280 26.67° C 72% 1013.9 hPa 0 mm - - -
1787739680 27.22° C 72% 1013.8 hPa 0 mm - - -
1787739084 27.22° C 71% 1013.8 hPa 0 mm - - -
1787738480 27.22° C 71% 1013.8 hPa 0 mm - - -
1787737880 27.22° C 71% 1013.9 hPa 0 mm - - -
1787737281 27.22° C 71% 1013.9 hPa 0 mm - - -

* Rain latest hour (hover to see other rain measurements)
** Current wind speed in m/s (hover to see current wind gust speed)